Location: Black Swamp Observatory
(41.3920°N, 84.1250°W)
Time: 13:52:56
(UTC-04:00)

Amateur Radio Satellites - All Passes

Search period start: 25 July 2016 13:22
Search period end: 26 July 2016 13:22
Location: Black Swamp Observatory, 41.3920°N, 84.1250°W

Satellite Date Start Highest point End Downlink Frequencies (MHz)
Time Altitude Azimuth
Cosmos 2504 25 Jul 13:26:17 13:34:27 41° 287° (WNW) 13:42:42 435.465 / 435.565
QB50P1 25 Jul 13:30:48 13:33:27 16° 268° (W) 13:36:06 145.935-145.965
Gurwin Techsat 1B 25 Jul 13:36:11 13:39:54 20° 62° (ENE) 13:43:36 435.225
BUGSAT 1 25 Jul 13:37:09 13:40:47 31° 263° (W) 13:44:28 437.445
POPSAT HIP 1 25 Jul 13:37:30 13:39:45 14° 269° (W) 13:42:00 437.405
AISAT 25 Jul 13:45:33 13:49:58 64° 287° (WNW) 13:54:23 437.250
AIST 1 25 Jul 13:49:01 13:52:20 22° 88° (E) 13:55:39
DX 1 25 Jul 13:52:46 13:57:08 78° 286° (WNW) 14:01:31 434.975-435.025
ITAMSAT 1 25 Jul 14:04:48 14:06:44 12° 58° (ENE) 14:08:40 435.822/435.867
Oscar 19 25 Jul 14:10:27 14:15:33 84° 74° (ENE) 14:20:42 437.125/150
UKube-1 25 Jul 14:10:32 14:14:49 62° 286° (WNW) 14:19:05 .
AO-7 25 Jul 14:11:57 14:16:45 17° 47° (NE) 14:21:32 29.400- 29.500
ESTCUBE 1 25 Jul 14:12:35 14:16:01 22° 294° (WNW) 14:19:26 437.505/2401.250
TISAT 1 25 Jul 14:15:45 14:19:27 28° 96° (E) 14:23:07 437.305
50 SAT 25 Jul 14:32:12 14:34:13 14° 294° (WNW) 14:36:13 437.505
AO-85 25 Jul 14:32:37 14:37:18 31° 113° (ESE) 14:41:51 145.980
GONETS M04 25 Jul 14:36:12 14:38:27 11° 72° (ENE) 14:40:41
JAS-2 25 Jul 14:37:21 14:41:46 20° 266° (W) 14:45:53 435.910
VELOX 1 25 Jul 14:38:14 14:41:29 20° 294° (WNW) 14:44:44 145.980
CUBEBUG 1 25 Jul 14:45:35 14:48:03 15° 297° (WNW) 14:50:32 437.445
SPROUT 25 Jul 14:48:27 14:52:11 29° 291° (WNW) 14:55:54 437.525
SWISSCUBE 25 Jul 14:53:26 14:56:19 16° 92° (E) 14:59:11 437.505
Gurwin Techsat 1B 25 Jul 15:14:09 15:19:23 57° 259° (W) 15:24:38 435.225
BEESAT 25 Jul 15:14:19 15:18:08 23° 95° (E) 15:21:55 436.000
AIST 1 25 Jul 15:26:06 15:29:46 28° 285° (WNW) 15:33:27
RS-15 25 Jul 15:32:13 15:43:42 42° 38° (NE) 15:55:07 29.354- 29.394
ITUPSAT 1 25 Jul 15:35:37 15:40:03 37° 98° (E) 15:44:27 437.325
ITAMSAT 1 25 Jul 15:40:09 15:45:24 87° 73° (ENE) 15:50:39 435.822/435.867
TISAT 1 25 Jul 15:51:30 15:54:59 25° 292° (WNW) 15:58:27 437.305
Oscar 19 25 Jul 15:54:06 15:55:30 11° 271° (W) 15:56:54 437.125/150
CUSAT 1 25 Jul 15:58:43 16:01:36 87° 260° (W) 16:05:07 437.405
AO-7 25 Jul 15:59:45 16:08:02 70° 68° (ENE) 16:16:22 29.400- 29.500
DANDE 25 Jul 16:03:33 16:05:32 19° 75° (ENE) 16:07:35 436.750
AO-85 25 Jul 16:12:38 16:17:42 41° 309° (NW) 16:22:32 145.980
MOZHAYETS 4 25 Jul 16:14:33 16:16:17 12° 89° (E) 16:18:00
HORYU 2 25 Jul 16:18:05 16:19:28 11° 60° (ENE) 16:20:51 437.375
GONETS M04 25 Jul 16:24:53 16:33:26 67° 92° (E) 16:42:02
SWISSCUBE 25 Jul 16:29:47 16:34:26 54° 288° (WNW) 16:39:03 437.505
Cosmos 2499 25 Jul 16:30:41 16:39:15 55° 90° (E) 16:47:40 435.465 / 435.565
BEESAT 25 Jul 16:51:38 16:56:00 37° 291° (WNW) 17:00:20 436.000
ITUPSAT 1 25 Jul 17:13:54 17:17:40 24° 294° (WNW) 17:21:26 437.325
ITAMSAT 1 25 Jul 17:24:07 17:25:31 11° 272° (W) 17:26:54 435.822/435.867
NOAA 18 25 Jul 17:27:33 17:30:07 13° 57° (ENE) 17:32:41 137.9125
KKS-1 25 Jul 17:28:52 17:33:22 70° 102° (ESE) 17:37:51 437.445
SO-50 25 Jul 17:29:44 17:33:49 29° 47° (NE) 17:37:47 436.795
NOAA 15 25 Jul 17:33:13 17:36:39 18° 61° (ENE) 17:40:06 137.62
BRITE-PL 25 Jul 17:36:13 17:38:37 15° 65° (ENE) 17:41:02 437.365/2234.400
RS-15 25 Jul 17:44:59 17:57:16 73° 243° (WSW) 18:09:21 29.354- 29.394
MOZHAYETS 4 25 Jul 17:49:20 17:53:53 66° 286° (WNW) 17:58:23
HORYU 2 25 Jul 17:50:53 17:55:21 79° 256° (WSW) 17:59:53 437.375
AO-7 25 Jul 17:54:43 18:01:23 26° 266° (W) 18:08:07 29.400- 29.500
STARS 25 Jul 18:12:52 18:17:19 79° 285° (WNW) 18:21:45 437.465
Cubesat XI-IV 25 Jul 18:20:31 18:25:22 35° 68° (ENE) 18:30:13 437.490
GONETS M04 25 Jul 18:23:53 18:30:57 27° 293° (WNW) 18:38:04
Cosmos 2499 25 Jul 18:24:47 18:32:40 35° 289° (WNW) 18:40:28 435.465 / 435.565
CUTE-I 25 Jul 18:44:18 18:49:33 57° 72° (ENE) 18:54:49 437.470
GOMX 1 25 Jul 18:46:23 18:50:12 37° 71° (ENE) 18:54:11 467.674
DOVE 4 25 Jul 18:49:41 18:52:45 19° 65° (ENE) 18:55:54 437.250
LilacSat-2 25 Jul 18:52:59 18:56:48 61° 76° (ENE) 19:00:39 437.200
CUBESAT XI-V 25 Jul 19:03:28 19:08:05 89° 295° (WNW) 19:12:43 437.345
NOAA 18 25 Jul 19:04:24 19:09:56 88° 76° (ENE) 19:15:32 137.9125
KKS-1 25 Jul 19:07:27 19:09:21 13° 299° (WNW) 19:11:14 437.445
PHONESAT 2.4 25 Jul 19:08:41 19:11:33 35° 160° (SSE) 19:14:24 2401.200-2431.200
SO-50 25 Jul 19:10:08 19:14:19 34° 245° (WSW) 19:18:23 436.795
NOAA 15 25 Jul 19:10:44 19:15:56 62° 259° (WSW) 19:21:08 137.62
BRITE-PL 25 Jul 19:12:48 19:16:48 44° 262° (W) 19:20:47 437.365/2234.400
CINEMA 3 25 Jul 19:16:27 19:18:04 12° 60° (ENE) 19:19:42 145.822/145.860
BEESAT 3 25 Jul 19:22:49 19:26:14 29° 115° (ESE) 19:29:41 437.485
BEESAT 2 25 Jul 19:26:10 19:28:46 17° 111° (ESE) 19:31:24 435.950
CANX-2 25 Jul 19:28:28 19:30:28 13° 63° (ENE) 19:32:27 2200.000
HO-68 25 Jul 19:29:56 19:35:53 29° 60° (ENE) 19:41:51 435.675
CUTE 1.7 + AOD 2 25 Jul 19:41:36 19:44:11 16° 65° (ENE) 19:46:45 437.475
STRAND 1 25 Jul 19:49:19 19:52:36 17° 92° (E) 19:55:52 437.568
RS-15 25 Jul 20:00:39 20:07:28 17° 264° (W) 20:14:16 29.354- 29.394
Cubesat XI-IV 25 Jul 20:00:43 20:05:25 30° 264° (W) 20:10:10 437.490
PCSat 25 Jul 20:12:22 20:17:25 42° 112° (ESE) 20:22:30 145.827
UWE-3 25 Jul 20:17:59 20:19:05 11° 60° (ENE) 20:20:12 435.000/436.395/437.385
SEEDS 25 Jul 20:22:47 20:26:29 30° 70° (ENE) 20:30:12 437.485
GOMX 1 25 Jul 20:25:45 20:28:31 17° 268° (W) 20:31:21 467.674
DOVE 4 25 Jul 20:26:12 20:30:09 38° 263° (W) 20:34:19 437.250
CUTE-I 25 Jul 20:26:18 20:29:57 18° 268° (W) 20:33:37 437.470
YUBILEINY 25 Jul 20:31:54 20:38:42 24° 65° (ENE) 20:45:25 435.215
CUBEBUG 2 25 Jul 20:33:28 20:37:01 23° 66° (ENE) 20:40:40 437.445
COMPASS 1 25 Jul 20:37:56 20:41:38 31° 70° (ENE) 20:45:19 437.405
PHONESAT 2.4 25 Jul 20:44:49 20:47:54 75° 177° (S) 20:50:59 2401.200-2431.200
NOAA 18 25 Jul 20:49:23 20:51:18 12° 271° (W) 20:53:12 137.9125
CINEMA 3 25 Jul 20:50:00 20:54:27 78° 259° (W) 20:59:10 145.822/145.860
BEESAT 3 25 Jul 21:00:36 21:03:54 25° 312° (NW) 21:07:14 437.485
CANX-2 25 Jul 21:01:35 21:05:49 60° 260° (W) 21:10:03 2200.000
BEESAT 2 25 Jul 21:02:30 21:06:16 41° 308° (NW) 21:10:04 435.950
Oscar 11 25 Jul 21:05:16 21:08:34 21° 67° (ENE) 21:11:51 145.826/435.025
AAUSAT CUBESAT 2 25 Jul 21:07:37 21:11:40 53° 74° (ENE) 21:15:43 437.432
PRISM 25 Jul 21:11:27 21:13:11 12° 91° (E) 21:14:55 437.425
AIST 2 25 Jul 21:13:22 21:14:39 11° 108° (ESE) 21:15:55 435.215
M-CUBED/EXP-1 PRIME 25 Jul 21:14:46 21:16:44 14° 57° (ENE) 21:18:47 437.505
CUTE 1.7 + AOD 2 25 Jul 21:15:29 21:19:38 47° 261° (W) 21:23:47 437.475
HO-68 25 Jul 21:16:07 21:23:10 58° 258° (WSW) 21:30:16 435.675
STRAND 1 25 Jul 21:27:07 21:32:08 57° 288° (WNW) 21:37:07 437.568
Cosmos 2504 25 Jul 21:27:28 21:32:09 16° 59° (ENE) 21:36:39 435.465 / 435.565
O/OREOS (USA 219) 25 Jul 21:27:33 21:31:39 38° 106° (ESE) 21:35:48 437.305
AUBIESAT-1 25 Jul 21:41:14 21:44:11 22° 61° (ENE) 21:47:18 437.475
DELFI C3 25 Jul 21:45:50 21:49:00 23° 69° (ENE) 21:52:11 145.870
UWE-3 25 Jul 21:50:14 21:54:47 86° 259° (W) 21:59:28 435.000/436.395/437.385
HUMSAT D 25 Jul 21:50:59 21:53:20 15° 64° (ENE) 21:55:42 437.325/437.525
Cosmos 2491 25 Jul 21:54:01 22:01:43 37° 85° (E) 22:09:25 435.465 / 435.565
ZACube-1 25 Jul 21:54:48 21:59:17 70° 75° (ENE) 22:03:52 437.345
FUNcube-1 25 Jul 21:54:51 21:59:20 66° 75° (ENE) 22:03:53 145.935
PCSat 25 Jul 21:56:10 22:00:55 30° 310° (NW) 22:05:42 145.827
SEEDS 25 Jul 21:58:51 22:02:12 22° 266° (W) 22:05:33 437.485
CUBEBUG 2 25 Jul 22:09:10 22:13:23 37° 263° (W) 22:17:45 437.445
COMPASS 1 25 Jul 22:13:58 22:17:12 22° 266° (W) 22:20:27 437.405
PHONESAT 2.4 25 Jul 22:21:18 22:24:19 52° 193° (SSW) 22:27:20 2401.200-2431.200
ISS 25 Jul 22:22:03 22:24:58 31° 136° (SE) 22:27:54 145.825
YUBILEINY 25 Jul 22:27:37 22:36:27 77° 266° (W) 22:45:13 435.215
Oscar 11 25 Jul 22:40:29 22:44:28 35° 263° (W) 22:48:28 145.826/435.025
PRISM 25 Jul 22:44:48 22:48:47 52° 287° (WNW) 22:52:47 437.425
AAUSAT CUBESAT 2 25 Jul 22:45:38 22:47:27 13° 269° (W) 22:49:16 437.432
M-CUBED/EXP-1 PRIME 25 Jul 22:47:10 22:50:45 51° 256° (WSW) 22:54:41 437.505
AIST 2 25 Jul 22:48:28 22:52:32 67° 303° (WNW) 22:56:41 435.215
AO-85 25 Jul 23:04:40 23:08:21 24° 44° (NE) 23:11:47 145.980
TIGRISAT 25 Jul 23:05:42 23:09:10 21° 93° (E) 23:12:35 435.000
O/OREOS (USA 219) 25 Jul 23:07:43 23:11:11 22° 303° (WNW) 23:14:40 437.305
AISAT 25 Jul 23:09:40 23:11:09 12° 61° (ENE) 23:12:38 437.250
AUBIESAT-1 25 Jul 23:15:09 23:18:28 30° 259° (W) 23:22:01 437.475
Cosmos 2504 25 Jul 23:18:47 23:27:05 82° 82° (E) 23:34:42 435.465 / 435.565
DELFI C3 25 Jul 23:20:22 23:23:45 26° 264° (W) 23:27:08 145.870
UNISAT 6 25 Jul 23:21:00 23:25:09 31° 96° (E) 23:29:12 437.425
HUMSAT D 25 Jul 23:24:17 23:28:30 54° 260° (W) 23:32:45 437.325/437.525
UKube-1 25 Jul 23:32:24 23:33:35 11° 61° (ENE) 23:34:46 .
FUNcube-1 25 Jul 23:34:16 23:36:01 12° 271° (W) 23:37:46 145.935
ZACube-1 25 Jul 23:34:40 23:36:03 11° 272° (W) 23:37:27 437.345
ESTCUBE 1 25 Jul 23:34:49 23:38:51 34° 70° (ENE) 23:42:54 437.505/2401.250
50 SAT 25 Jul 23:35:53 23:38:22 17° 67° (ENE) 23:40:51 437.505
Cosmos 2491 25 Jul 23:49:57 23:58:17 48° 285° (WNW) 00:06:40 435.465 / 435.565
ISS 25 Jul 23:58:22 00:01:22 33° 333° (NNW) 00:04:23 145.825
VELOX 1 25 Jul 23:58:28 00:02:26 35° 70° (ENE) 00:06:25 145.980
PHONESAT 2.4 25 Jul 23:58:28 00:00:26 16° 209° (SSW) 00:02:24 2401.200-2431.200
ANTELSAT 25 Jul 23:59:12 00:03:54 80° 104° (ESE) 00:08:26 437.575/2403.000
CUBEBUG 1 26 Jul 00:03:49 00:07:54 44° 72° (ENE) 00:12:01 437.445
QB50P2 26 Jul 00:06:00 00:08:30 15° 92° (E) 00:10:59 145.880/145.840
SPROUT 26 Jul 00:06:44 00:09:50 20° 66° (ENE) 00:12:57 437.525
POLYITAN 1 26 Jul 00:08:35 00:11:09 15° 92° (E) 00:13:42 437.675
YUBILEINY 26 Jul 00:27:32 00:31:39 14° 286° (WNW) 00:35:46 435.215
AIST 2 26 Jul 00:31:26 00:31:50 10° 324° (NW) 00:32:15 435.215
TIGRISAT 26 Jul 00:41:40 00:46:00 39° 290° (WNW) 00:50:14 435.000
AISAT 26 Jul 00:42:39 00:47:00 73° 257° (WSW) 00:51:25 437.250
AO-85 26 Jul 00:44:55 00:48:55 36° 245° (WSW) 00:52:38 145.980
DX 1 26 Jul 00:48:00 00:52:19 90° 256° (WSW) 00:56:40 434.975-435.025
NANOSAT C BR1 26 Jul 00:52:04 00:56:10 43° 99° (E) 01:00:13 145.865
DUCHIFAT 1 26 Jul 00:57:07 01:01:15 46° 99° (E) 01:05:20 145.980
UNISAT 6 26 Jul 00:57:52 01:01:44 26° 293° (WNW) 01:05:31 437.425
UKube-1 26 Jul 01:04:43 01:09:00 74° 258° (WSW) 01:13:19 .
TISAT 1 26 Jul 01:07:47 01:11:01 22° 67° (ENE) 01:14:16 437.305
50 SAT 26 Jul 01:08:31 01:11:46 30° 263° (W) 01:15:03 437.505
ESTCUBE 1 26 Jul 01:12:10 01:15:43 23° 266° (W) 01:19:17 437.505/2401.250
QB50P1 26 Jul 01:13:25 01:17:44 81° 103° (ESE) 01:22:00 145.935-145.965
Cosmos 2504 26 Jul 01:14:06 01:19:15 19° 283° (WNW) 01:24:11 435.465 / 435.565
BUGSAT 1 26 Jul 01:18:22 01:22:17 35° 97° (E) 01:26:11 437.445
POPSAT HIP 1 26 Jul 01:19:43 01:24:02 87° 281° (W) 01:28:19 437.405
AIST 1 26 Jul 01:32:03 01:36:23 67° 82° (E) 01:40:43
VELOX 1 26 Jul 01:35:39 01:38:59 21° 266° (W) 01:42:19 145.980
ISS 26 Jul 01:36:38 01:38:32 14° 353° (N) 01:40:25 145.825
ANTELSAT 26 Jul 01:38:18 01:39:53 12° 300° (WNW) 01:41:27 437.575/2403.000
QB50P2 26 Jul 01:40:25 01:44:33 47° 288° (WNW) 01:48:39 145.880/145.840
SPROUT 26 Jul 01:41:34 01:45:31 36° 262° (W) 01:49:31 437.525
CUBEBUG 1 26 Jul 01:41:45 01:44:25 16° 268° (W) 01:47:04 437.445
POLYITAN 1 26 Jul 01:43:04 01:47:12 46° 288° (WNW) 01:51:17 437.675
JAS-2 26 Jul 01:43:30 01:48:34 45° 100° (E) 01:54:01 435.910
SWISSCUBE 26 Jul 01:59:54 02:03:20 20° 64° (ENE) 02:06:46 437.505
BEESAT 26 Jul 02:20:42 02:24:45 28° 67° (ENE) 02:28:49 436.000
Oscar 19 26 Jul 02:22:16 02:26:45 29° 96° (E) 02:31:13 437.125/150
Cosmos 2499 26 Jul 02:24:07 02:29:07 18° 61° (ENE) 02:33:54 435.465 / 435.565
NANOSAT C BR1 26 Jul 02:28:45 02:31:33 17° 295° (WNW) 02:34:21 145.865
DUCHIFAT 1 26 Jul 02:33:54 02:36:33 16° 295° (WNW) 02:39:13 145.980
GONETS M04 26 Jul 02:35:17 02:43:03 33° 70° (ENE) 02:50:48
ITUPSAT 1 26 Jul 02:42:13 02:46:46 44° 71° (ENE) 02:51:20 437.325
TISAT 1 26 Jul 02:42:44 02:46:29 32° 263° (W) 02:50:16 437.305
BUGSAT 1 26 Jul 02:54:15 02:57:26 21° 293° (WNW) 03:00:36 437.445
ISS 26 Jul 03:13:42 03:15:57 17° 14° (NNE) 03:18:11 145.825
MOZHAYETS 4 26 Jul 03:16:44 03:18:51 13° 62° (ENE) 03:20:58
JAS-2 26 Jul 03:29:24 03:33:27 23° 295° (WNW) 03:37:42 435.910
Gurwin Techsat 1B 26 Jul 03:30:10 03:35:25 57° 101° (E) 03:40:37 435.225
SWISSCUBE 26 Jul 03:36:10 03:40:47 46° 261° (W) 03:45:25 437.505
BEESAT 3 26 Jul 03:39:54 03:42:58 21° 46° (NE) 03:46:01 437.485
BEESAT 2 26 Jul 03:43:39 03:45:52 14° 41° (NE) 03:48:04 435.950
ITAMSAT 1 26 Jul 03:53:23 03:57:56 30° 96° (E) 04:02:26 435.822/435.867
BEESAT 26 Jul 03:58:12 04:02:26 31° 263° (W) 04:06:43 436.000
Oscar 19 26 Jul 04:01:26 04:06:04 34° 292° (WNW) 04:10:42 437.125/150
AO-7 26 Jul 04:02:38 04:08:40 21° 92° (E) 04:14:37 29.400- 29.500
Cosmos 2499 26 Jul 04:15:32 04:23:30 88° 264° (W) 04:30:50 435.465 / 435.565
ITUPSAT 1 26 Jul 04:21:20 04:24:47 20° 267° (W) 04:28:17 437.325
KKS-1 26 Jul 04:26:42 04:31:04 64° 74° (ENE) 04:35:30 437.445
GONETS M04 26 Jul 04:31:44 04:40:14 55° 270° (W) 04:48:44
ISS 26 Jul 04:49:40 04:52:54 59° 34° (NNE) 04:56:07 145.825
MOZHAYETS 4 26 Jul 04:50:48 04:55:26 70° 259° (W) 05:00:04
PCSat 26 Jul 04:59:58 05:04:57 36° 52° (NE) 05:09:54 145.827
CUSAT 1 26 Jul 05:01:58 05:06:22 75° 278° (W) 05:09:45 437.405
STARS 26 Jul 05:09:10 05:13:33 89° 249° (WSW) 05:18:00 437.465
DANDE 26 Jul 05:10:12 05:15:54 49° 97° (E) 05:20:12 436.750
Gurwin Techsat 1B 26 Jul 05:11:10 05:14:55 20° 298° (WNW) 05:18:39 435.225
BEESAT 3 26 Jul 05:17:04 05:20:47 39° 243° (WSW) 05:24:28 437.485
BEESAT 2 26 Jul 05:20:10 05:24:10 71° 240° (WSW) 05:28:07 435.950
ITAMSAT 1 26 Jul 05:32:45 05:37:22 33° 293° (WNW) 05:41:59 435.822/435.867
AIST 2 26 Jul 05:33:09 05:34:39 12° 38° (NE) 05:36:08 435.215
HORYU 2 26 Jul 05:42:37 05:45:51 19° 93° (E) 05:49:04 437.375
AO-7 26 Jul 05:53:52 06:02:15 81° 291° (WNW) 06:10:34 29.400- 29.500
RS-15 26 Jul 06:01:29 06:08:06 17° 96° (E) 06:14:50 29.354- 29.394
KKS-1 26 Jul 06:06:25 06:08:04 12° 270° (W) 06:09:42 437.445
CUBESAT XI-V 26 Jul 06:06:29 06:11:07 88° 70° (ENE) 06:15:45 437.345
Cosmos 2499 26 Jul 06:11:19 06:15:12 15° 284° (WNW) 06:18:59 435.465 / 435.565
ISS 26 Jul 06:26:58 06:29:00 16° 229° (SW) 06:31:03 145.825
Cubesat XI-IV 26 Jul 06:39:17 06:41:44 13° 89° (E) 06:44:10 437.490
PCSat 26 Jul 06:43:27 06:48:18 34° 250° (WSW) 06:53:08 145.827
GOMX 1 26 Jul 06:48:19 06:50:56 14° 90° (E) 06:53:36 467.674
DANDE 26 Jul 06:54:59 06:58:35 18° 285° (WNW) 07:01:39 436.750
CUTE-I 26 Jul 07:02:00 07:06:09 22° 93° (E) 07:10:15 437.470
STRAND 1 26 Jul 07:04:57 07:09:08 26° 65° (ENE) 07:13:21 437.568
AIST 2 26 Jul 07:09:38 07:13:49 79° 56° (NE) 07:17:59 435.215
BRITE-PL 26 Jul 07:15:45 07:20:27 53° 100° (E) 07:25:30 437.365/2234.400
HORYU 2 26 Jul 07:18:22 07:22:33 39° 290° (WNW) 07:26:42 437.375
NOAA 15 26 Jul 07:25:42 07:30:48 49° 100° (E) 07:35:54 137.62
NOAA 18 26 Jul 07:26:41 07:31:49 37° 98° (E) 07:36:53 137.9125
O/OREOS (USA 219) 26 Jul 07:36:58 07:41:30 76° 66° (ENE) 07:46:04 437.305
AO-7 26 Jul 07:48:19 07:53:47 20° 311° (NW) 07:59:14 29.400- 29.500
LilacSat-2 26 Jul 08:00:25 08:04:19 86° 286° (WNW) 08:08:09 437.200
Cosmos 2491 26 Jul 08:04:31 08:10:08 18° 61° (ENE) 08:15:44 435.465 / 435.565
RS-15 26 Jul 08:06:53 08:18:16 77° 117° (ESE) 08:30:20 29.354- 29.394
Cubesat XI-IV 26 Jul 08:17:01 08:22:23 77° 286° (WNW) 08:27:42 437.490
DOVE 4 26 Jul 08:23:39 08:28:42 56° 100° (E) 08:33:53 437.250
GOMX 1 26 Jul 08:24:23 08:29:23 71° 285° (WNW) 08:34:40 467.674
CUTE-I 26 Jul 08:41:18 08:46:24 46° 290° (WNW) 08:51:27 437.470
STRAND 1 26 Jul 08:43:18 08:48:06 39° 262° (W) 08:52:56 437.568
HO-68 26 Jul 08:44:10 08:50:13 28° 95° (E) 08:56:12 435.675
CINEMA 3 26 Jul 08:44:47 08:49:05 28° 94° (E) 08:53:20 145.822/145.860
CANX-2 26 Jul 08:47:06 08:50:26 22° 94° (E) 08:53:45 2200.000
BRITE-PL 26 Jul 08:55:22 08:58:37 18° 294° (WNW) 09:02:00 437.365/2234.400
CUTE 1.7 + AOD 2 26 Jul 09:00:33 09:04:11 27° 96° (E) 09:07:46 437.475
NOAA 15 26 Jul 09:06:16 09:10:14 22° 297° (WNW) 09:14:13 137.62
NOAA 18 26 Jul 09:07:32 09:12:20 31° 295° (WNW) 09:17:07 137.9125
O/OREOS (USA 219) 26 Jul 09:20:00 09:20:13 10° 263° (W) 09:20:27 437.305
SO-50 26 Jul 09:23:14 09:28:06 74° 120° (ESE) 09:32:57 436.795
PRISM 26 Jul 09:33:50 09:37:54 74° 258° (WSW) 09:41:59 437.425
YUBILEINY 26 Jul 09:33:55 09:40:44 26° 81° (E) 09:47:34 435.215
UWE-3 26 Jul 09:40:49 09:44:13 20° 92° (E) 09:47:34 435.000/436.395/437.385
SEEDS 26 Jul 09:41:33 09:45:40 57° 100° (E) 09:49:45 437.485
FUNcube-1 26 Jul 09:44:53 09:46:53 13° 89° (E) 09:48:53 145.935
ZACube-1 26 Jul 09:44:53 09:47:13 14° 90° (E) 09:49:32 437.345
COMPASS 1 26 Jul 09:55:31 09:59:37 57° 101° (E) 10:03:39 437.405
Cosmos 2491 26 Jul 09:59:33 10:08:21 86° 82° (E) 10:17:09 435.465 / 435.565
CUBEBUG 2 26 Jul 09:59:38 10:04:13 47° 98° (E) 10:08:40 437.445
Cubesat XI-IV 26 Jul 10:00:14 10:01:32 11° 304° (WNW) 10:02:49 437.490
DOVE 4 26 Jul 10:02:23 10:05:58 19° 295° (WNW) 10:09:38 437.250
TIGRISAT 26 Jul 10:04:32 10:07:50 20° 65° (ENE) 10:11:09 435.000
Cosmos 2504 26 Jul 10:08:20 10:12:00 13° 74° (ENE) 10:15:39 435.465 / 435.565
UNISAT 6 26 Jul 10:19:42 10:23:40 29° 68° (ENE) 10:27:42 437.425
RS-15 26 Jul 10:21:15 10:31:57 39° 324° (NW) 10:43:10 29.354- 29.394
CINEMA 3 26 Jul 10:21:40 10:26:12 35° 291° (WNW) 10:30:42 145.822/145.860
CANX-2 26 Jul 10:22:37 10:26:18 30° 290° (WNW) 10:29:58 2200.000
AAUSAT CUBESAT 2 26 Jul 10:24:59 10:29:07 81° 283° (WNW) 10:33:13 437.432
Oscar 11 26 Jul 10:27:16 10:31:21 40° 98° (E) 10:35:23 145.826/435.025
M-CUBED/EXP-1 PRIME 26 Jul 10:27:42 10:29:36 12° 95° (E) 10:31:28 437.505
HO-68 26 Jul 10:31:14 10:38:14 56° 292° (WNW) 10:45:12 435.675
CUTE 1.7 + AOD 2 26 Jul 10:36:29 10:39:55 25° 292° (WNW) 10:43:19 437.475
AUBIESAT-1 26 Jul 10:53:36 10:56:54 19° 97° (E) 11:00:10 437.475
DELFI C3 26 Jul 10:57:16 11:00:55 35° 98° (E) 11:04:33 145.870
ANTELSAT 26 Jul 10:57:28 11:02:03 70° 74° (ENE) 11:06:45 437.575/2403.000
QB50P2 26 Jul 10:59:45 11:01:31 12° 62° (ENE) 11:03:17 145.880/145.840
POLYITAN 1 26 Jul 11:02:17 11:04:08 13° 62° (ENE) 11:06:00 437.675
SO-50 26 Jul 11:05:40 11:09:06 19° 319° (NW) 11:12:31 436.795
HUMSAT D 26 Jul 11:08:14 11:11:35 23° 94° (E) 11:14:55 437.325/437.525
UWE-3 26 Jul 11:16:31 11:20:50 40° 289° (WNW) 11:25:02 435.000/436.395/437.385
SEEDS 26 Jul 11:19:00 11:20:53 13° 297° (WNW) 11:22:45 437.485
FUNcube-1 26 Jul 11:19:06 11:23:32 59° 286° (WNW) 11:27:52 145.935
ZACube-1 26 Jul 11:19:26 11:23:52 55° 287° (WNW) 11:28:10 437.345
YUBILEINY 26 Jul 11:28:01 11:36:44 67° 281° (W) 11:45:34 435.215
COMPASS 1 26 Jul 11:32:52 11:34:41 13° 296° (WNW) 11:36:28 437.405
CUBEBUG 2 26 Jul 11:37:09 11:40:27 19° 295° (WNW) 11:43:42 437.445
TIGRISAT 26 Jul 11:39:45 11:44:08 45° 261° (W) 11:48:40 435.000
NANOSAT C BR1 26 Jul 11:44:14 11:47:59 32° 70° (ENE) 11:51:48 145.865
DUCHIFAT 1 26 Jul 11:48:59 11:52:48 34° 70° (ENE) 11:56:38 145.980
Cosmos 2504 26 Jul 11:54:58 12:03:43 70° 93° (E) 12:12:30 435.465 / 435.565
UNISAT 6 26 Jul 11:56:17 12:00:18 29° 265° (W) 12:04:23 437.425
JAS-2 26 Jul 11:57:26 12:01:42 21° 64° (ENE) 12:05:41 435.910
Cosmos 2491 26 Jul 11:58:23 12:03:59 19° 282° (WNW) 12:09:37 435.465 / 435.565
M-CUBED/EXP-1 PRIME 26 Jul 11:59:49 12:04:31 75° 291° (WNW) 12:09:13 437.505
Oscar 11 26 Jul 12:04:10 12:07:11 19° 294° (WNW) 12:10:10 145.826/435.025
QB50P1 26 Jul 12:05:33 12:09:43 59° 74° (ENE) 12:13:56 145.935-145.965
BUGSAT 1 26 Jul 12:08:28 12:11:46 24° 68° (ENE) 12:15:08 437.445
POPSAT HIP 1 26 Jul 12:11:51 12:16:04 69° 74° (ENE) 12:20:20 437.405
HO-68 26 Jul 12:22:34 12:24:24 11° 312° (NW) 12:26:16 435.675
AUBIESAT-1 26 Jul 12:27:04 12:31:31 47° 293° (WNW) 12:35:57 437.475
QB50P2 26 Jul 12:32:33 12:36:46 64° 259° (WSW) 12:41:02 145.880/145.840
DELFI C3 26 Jul 12:32:54 12:35:30 17° 294° (WNW) 12:38:05 145.870
AISAT 26 Jul 12:33:21 12:36:44 21° 94° (E) 12:40:06 437.250
POLYITAN 1 26 Jul 12:35:11 12:39:24 62° 259° (WSW) 12:43:40 437.675
50 SAT 26 Jul 12:37:17 12:39:58 19° 95° (E) 12:42:37 437.505
DX 1 26 Jul 12:37:20 12:39:57 15° 92° (E) 12:42:33 434.975-435.025
ANTELSAT 26 Jul 12:37:33 12:39:15 12° 271° (W) 12:40:58 437.575/2403.000
RS-15 26 Jul 12:40:15 12:49:17 23° 358° (N) 12:58:29 29.354- 29.394
HUMSAT D 26 Jul 12:43:35 12:47:12 29° 291° (WNW) 12:50:47 437.325/437.525
UKube-1 26 Jul 12:52:40 12:55:37 18° 93° (E) 12:58:33 .
ESTCUBE 1 26 Jul 13:03:16 13:07:46 74° 102° (ESE) 13:12:14 437.505/2401.250
Gurwin Techsat 1B 26 Jul 13:15:15 13:17:26 13° 58° (ENE) 13:19:36 435.225
